Time,TemperatureF,DewpointF,PressureIn,WindDirection,WindDirectionDegrees,WindSpeedMPH,WindSpeedGustMPH,Humidity,HourlyPrecipIn,Conditions,Clouds,dailyrainin,SoftwareType,DateUTC
2013-03-18 00:00:00,48.4,44.1,29.85,NNW,341,0.0,6.0,85,0.00,,,0.00,meteohub,2013-03-18 04:00:00,
2013-03-18 00:05:00,48.0,43.7,29.85,East,91,0.0,6.0,85,0.00,,,0.00,meteohub,2013-03-18 04:05:00,
2013-03-18 00:10:00,48.0,43.7,29.85,ENE,75,0.0,1.0,85,0.00,,,0.00,meteohub,2013-03-18 04:10:00,
2013-03-18 00:15:00,48.0,43.7,29.84,ESE,111,0.0,1.0,85,0.00,,,0.00,meteohub,2013-03-18 04:15:00,
2013-03-18 00:20:00,48.0,43.7,29.84,SE,146,0.0,1.0,85,0.00,,,0.00,meteohub,2013-03-18 04:20:00,
2013-03-18 00:25:00,48.0,43.7,29.85,ESE,104,0.0,7.0,85,0.00,,,0.00,meteohub,2013-03-18 04:25:00,
2013-03-18 00:30:00,47.8,43.9,29.84,NNE,14,0.0,7.0,86,0.00,,,0.00,meteohub,2013-03-18 04:30:00,
2013-03-18 00:35:00,47.8,43.9,29.84,SE,130,0.0,7.0,86,0.00,,,0.00,meteohub,2013-03-18 04:35:00,
2013-03-18 00:40:00,47.8,43.9,29.84,NNE,33,0.0,5.0,86,0.00,,,0.00,meteohub,2013-03-18 04:40:00,
2013-03-18 00:45:00,47.8,43.9,29.84,ESE,120,0.0,8.0,86,0.00,,,0.00,meteohub,2013-03-18 04:45:00,
2013-03-18 00:50:00,47.8,44.2,29.84,ESE,106,0.0,8.0,87,0.00,,,0.00,meteohub,2013-03-18 04:50:00,
2013-03-18 00:55:00,47.8,44.2,29.84,SE,125,0.0,7.0,87,0.00,,,0.00,meteohub,2013-03-18 04:55:00,
2013-03-18 01:00:00,47.8,44.2,29.84,ESE,115,0.0,7.0,87,0.00,,,0.00,meteohub,2013-03-18 05:00:00,
2013-03-18 01:06:00,47.8,44.2,29.84,ESE,120,10.0,10.0,87,0.00,,,0.00,meteohub,2013-03-18 05:06:00,
2013-03-18 01:11:00,47.8,44.2,29.84,SSE,165,0.0,10.0,87,0.00,,,0.00,meteohub,2013-03-18 05:11:00,
2013-03-18 01:16:00,47.8,44.4,29.84,South,181,5.0,10.0,88,0.00,,,0.00,meteohub,2013-03-18 05:16:00,
2013-03-18 01:21:00,47.7,44.2,29.84,SSE,158,0.0,11.0,88,0.00,,,0.00,meteohub,2013-03-18 05:21:00,
2013-03-18 01:26:00,47.7,44.2,29.84,SSE,152,0.0,11.0,88,0.00,,,0.00,meteohub,2013-03-18 05:26:00,
2013-03-18 01:31:00,47.5,44.4,29.84,South,170,0.0,16.0,89,0.00,,,0.00,meteohub,2013-03-18 05:31:00,
2013-03-18 01:36:00,47.3,44.2,29.84,SE,125,0.0,16.0,89,0.00,,,0.00,meteohub,2013-03-18 05:36:00,
2013-03-18 01:41:00,47.1,44.1,29.85,SSE,156,0.0,16.0,89,0.00,,,0.00,meteohub,2013-03-18 05:41:00,
2013-03-18 01:46:00,46.9,44.2,29.85,SSE,155,0.0,12.0,90,0.00,,,0.00,meteohub,2013-03-18 05:46:00,
2013-03-18 01:51:00,46.8,44.1,29.84,South,175,0.0,7.0,90,0.00,,,0.00,meteohub,2013-03-18 05:51:00,
2013-03-18 01:56:00,46.6,43.9,29.84,SE,146,0.0,5.0,90,0.00,,,0.00,meteohub,2013-03-18 05:56:00,
2013-03-18 02:01:00,46.6,44.1,29.84,SE,135,1.0,5.0,91,0.00,,,0.00,meteohub,2013-03-18 06:01:00,
2013-03-18 02:06:00,46.4,43.9,29.84,SE,132,0.0,5.0,91,0.00,,,0.00,meteohub,2013-03-18 06:06:00,
2013-03-18 02:11:00,46.4,43.9,29.85,SE,137,0.0,12.0,91,0.00,,,0.00,meteohub,2013-03-18 06:11:00,
2013-03-18 02:16:00,46.2,44.1,29.85,ESE,115,0.0,12.0,92,0.00,,,0.00,meteohub,2013-03-18 06:16:00,
2013-03-18 02:21:00,46.2,44.1,29.86,ESE,115,0.0,12.0,92,0.00,,,0.00,meteohub,2013-03-18 06:21:00,
2013-03-18 02:26:00,46.0,43.5,29.85,ESE,115,0.0,3.0,91,0.00,,,0.00,meteohub,2013-03-18 06:26:00,
2013-03-18 02:32:00,45.9,43.7,29.86,East,81,0.0,4.0,92,0.00,,,0.00,meteohub,2013-03-18 06:32:00,
2013-03-18 02:37:00,45.7,43.5,29.86,SE,129,0.0,7.0,92,0.00,,,0.00,meteohub,2013-03-18 06:37:00,
2013-03-18 02:42:00,45.7,43.5,29.85,SE,137,0.0,7.0,92,0.00,,,0.00,meteohub,2013-03-18 06:42:00,
2013-03-18 02:47:00,45.7,43.7,29.85,East,89,0.0,7.0,93,0.00,,,0.00,meteohub,2013-03-18 06:47:00,
2013-03-18 02:52:00,45.7,43.7,29.85,ESE,110,0.0,4.0,93,0.00,,,0.00,meteohub,2013-03-18 06:52:00,
2013-03-18 02:57:00,45.7,43.7,29.85,North,354,0.0,3.0,93,0.00,,,0.00,meteohub,2013-03-18 06:57:00,
2013-03-18 03:02:00,45.5,43.5,29.85,SE,129,0.0,3.0,93,0.00,,,0.00,meteohub,2013-03-18 07:02:00,
2013-03-18 03:07:00,45.3,43.3,29.85,SE,125,0.0,3.0,93,0.00,,,0.00,meteohub,2013-03-18 07:07:00,
2013-03-18 03:12:00,45.3,43.3,29.85,SE,132,0.0,3.0,93,0.00,,,0.00,meteohub,2013-03-18 07:12:00,
2013-03-18 03:17:00,45.3,43.3,29.85,SE,125,0.0,5.0,93,0.00,,,0.00,meteohub,2013-03-18 07:17:00,
2013-03-18 03:22:00,45.3,43.7,29.85,ESE,120,0.0,5.0,94,0.00,,,0.00,meteohub,2013-03-18 07:22:00,
2013-03-18 03:27:00,45.1,43.5,29.85,SSE,154,0.0,0.0,94,0.00,,,0.00,meteohub,2013-03-18 07:27:00,
2013-03-18 03:32:00,45.1,43.5,29.85,ESE,115,0.0,5.0,94,0.00,,,0.00,meteohub,2013-03-18 07:32:00,
2013-03-18 03:37:00,45.0,43.3,29.86,South,173,6.0,6.0,94,0.00,,,0.00,meteohub,2013-03-18 07:37:00,
2013-03-18 03:43:00,45.0,43.3,29.85,East,100,0.0,10.0,94,0.00,,,0.00,meteohub,2013-03-18 07:43:00,
2013-03-18 03:48:00,44.8,43.2,29.85,SSE,154,0.0,10.0,94,0.00,,,0.00,meteohub,2013-03-18 07:48:00,
2013-03-18 03:53:00,44.8,43.2,29.85,ESE,115,0.0,10.0,94,0.00,,,0.00,meteohub,2013-03-18 07:53:00,
2013-03-18 03:58:00,44.8,43.2,29.85,SSE,164,0.0,5.0,94,0.00,,,0.00,meteohub,2013-03-18 07:58:00,
2013-03-18 04:03:00,44.4,42.8,29.85,SSE,158,1.0,6.0,94,0.00,,,0.00,meteohub,2013-03-18 08:03:00,
2013-03-18 04:08:00,44.4,43.2,29.85,ESE,115,0.0,6.0,95,0.00,,,0.00,meteohub,2013-03-18 08:08:00,
2013-03-18 04:13:00,44.4,43.2,29.85,South,173,0.0,6.0,95,0.00,,,0.00,meteohub,2013-03-18 08:13:00,
2013-03-18 04:18:00,44.8,43.5,29.85,SE,144,0.0,12.0,95,0.00,,,0.00,meteohub,2013-03-18 08:18:00,
2013-03-18 04:23:00,44.8,43.5,29.86,East,100,0.0,12.0,95,0.00,,,0.00,meteohub,2013-03-18 08:23:00,
2013-03-18 04:28:00,45.1,43.9,29.85,ESE,110,0.0,12.0,95,0.00,,,0.00,meteohub,2013-03-18 08:28:00,
2013-03-18 04:33:00,45.3,44.1,29.85,NNE,28,0.0,7.0,95,0.00,,,0.00,meteohub,2013-03-18 08:33:00,
2013-03-18 04:38:00,45.7,44.1,29.85,SSE,156,0.0,10.0,94,0.00,,,0.00,meteohub,2013-03-18 08:38:00,
2013-03-18 04:43:00,45.7,44.1,29.85,SE,137,0.0,10.0,94,0.00,,,0.00,meteohub,2013-03-18 08:43:00,
2013-03-18 04:48:00,45.5,43.9,29.85,SSE,162,0.0,10.0,94,0.00,,,0.00,meteohub,2013-03-18 08:48:00,
2013-03-18 04:53:00,45.5,43.9,29.84,SSE,159,0.0,0.0,94,0.00,,,0.00,meteohub,2013-03-18 08:53:00,
2013-03-18 04:58:00,45.5,43.9,29.84,NE,54,0.0,6.0,94,0.00,,,0.00,meteohub,2013-03-18 08:58:00,
2013-03-18 05:03:00,45.5,43.9,29.84,ESE,107,0.0,6.0,94,0.00,,,0.00,meteohub,2013-03-18 09:03:00,
2013-03-18 05:08:00,45.5,43.9,29.84,SE,135,0.0,4.0,94,0.00,,,0.00,meteohub,2013-03-18 09:08:00,
2013-03-18 05:13:00,45.3,43.7,29.83,SE,136,0.0,2.0,94,0.00,,,0.00,meteohub,2013-03-18 09:13:00,
2013-03-18 05:18:00,45.0,43.0,29.83,South,172,0.0,0.0,93,0.00,,,0.00,meteohub,2013-03-18 09:18:00,
2013-03-18 05:23:00,44.2,42.3,29.84,South,173,0.0,3.0,93,0.00,,,0.00,meteohub,2013-03-18 09:23:00,
2013-03-18 05:28:00,43.9,42.3,29.84,South,173,0.0,4.0,94,0.00,,,0.00,meteohub,2013-03-18 09:28:00,
2013-03-18 05:33:00,43.5,41.9,29.84,South,173,0.0,4.0,94,0.00,,,0.00,meteohub,2013-03-18 09:33:00,
2013-03-18 05:38:00,43.3,41.7,29.84,South,173,0.0,0.0,94,0.00,,,0.00,meteohub,2013-03-18 09:38:00,
2013-03-18 05:43:00,43.5,42.3,29.84,South,173,0.0,0.0,95,0.00,,,0.00,meteohub,2013-03-18 09:43:00,
2013-03-18 05:48:00,43.5,42.3,29.84,South,173,0.0,0.0,95,0.00,,,0.00,meteohub,2013-03-18 09:48:00,
2013-03-18 05:53:00,43.2,41.9,29.83,South,173,0.0,0.0,95,0.00,,,0.00,meteohub,2013-03-18 09:53:00,
2013-03-18 05:58:00,43.2,41.9,29.84,South,173,0.0,0.0,95,0.00,,,0.00,meteohub,2013-03-18 09:58:00,
2013-03-18 06:03:00,43.0,41.7,29.85,South,173,0.0,0.0,95,0.00,,,0.00,meteohub,2013-03-18 10:03:00,
2013-03-18 06:08:00,43.0,41.7,29.85,South,173,0.0,0.0,95,0.00,,,0.00,meteohub,2013-03-18 10:08:00,
2013-03-18 06:13:00,43.0,41.7,29.85,South,173,0.0,0.0,95,0.00,,,0.00,meteohub,2013-03-18 10:13:00,
2013-03-18 06:18:00,43.0,41.7,29.85,South,173,0.0,0.0,95,0.00,,,0.00,meteohub,2013-03-18 10:18:00,
2013-03-18 06:23:00,43.0,41.7,29.85,South,173,0.0,0.0,95,0.00,,,0.00,meteohub,2013-03-18 10:23:00,
2013-03-18 06:28:00,43.0,41.9,29.85,South,173,0.0,0.0,96,0.00,,,0.00,meteohub,2013-03-18 10:28:00,
2013-03-18 06:33:00,43.2,42.1,29.85,South,173,0.0,0.0,96,0.00,,,0.00,meteohub,2013-03-18 10:33:00,
2013-03-18 06:38:00,43.2,42.1,29.85,South,173,0.0,0.0,96,0.00,,,0.00,meteohub,2013-03-18 10:38:00,
2013-03-18 06:43:00,42.8,41.7,29.85,South,175,0.0,0.0,96,0.00,,,0.00,meteohub,2013-03-18 10:43:00,
2013-03-18 06:48:00,42.6,41.5,29.85,South,175,0.0,5.0,96,0.00,,,0.00,meteohub,2013-03-18 10:48:00,
2013-03-18 06:53:00,42.8,41.7,29.85,South,175,0.0,5.0,96,0.00,,,0.00,meteohub,2013-03-18 10:53:00,
2013-03-18 06:58:00,43.2,42.1,29.85,SE,134,0.0,4.0,96,0.00,,,0.00,meteohub,2013-03-18 10:58:00,
2013-03-18 07:03:00,43.3,42.3,29.85,ESE,110,0.0,0.0,96,0.00,,,0.00,meteohub,2013-03-18 11:03:00,
2013-03-18 07:08:00,43.5,42.4,29.84,ESE,115,0.0,0.0,96,0.00,,,0.00,meteohub,2013-03-18 11:08:00,
2013-03-18 07:13:00,43.7,42.6,29.84,ESE,120,0.0,4.0,96,0.00,,,0.00,meteohub,2013-03-18 11:13:00,
2013-03-18 07:18:00,43.9,42.8,29.85,East,93,0.0,5.0,96,0.00,,,0.00,meteohub,2013-03-18 11:18:00,
2013-03-18 07:23:00,43.7,42.6,29.85,SE,125,0.0,5.0,96,0.00,,,0.00,meteohub,2013-03-18 11:23:00,
2013-03-18 07:28:00,43.7,42.6,29.85,East,96,0.0,7.0,96,0.00,,,0.00,meteohub,2013-03-18 11:28:00,
2013-03-18 07:34:00,43.7,42.6,29.85,South,171,0.0,7.0,96,0.00,,,0.00,meteohub,2013-03-18 11:34:00,
2013-03-18 07:39:00,43.3,42.3,29.85,SSE,155,0.0,6.0,96,0.00,,,0.00,meteohub,2013-03-18 11:39:00,
2013-03-18 07:44:00,43.2,42.1,29.86,SE,125,0.0,6.0,96,0.00,,,0.00,meteohub,2013-03-18 11:44:00,
2013-03-18 07:49:00,43.0,41.9,29.86,South,175,0.0,6.0,96,0.00,,,0.00,meteohub,2013-03-18 11:49:00,
2013-03-18 07:54:00,42.6,41.5,29.86,SE,140,0.0,6.0,96,0.00,,,0.00,meteohub,2013-03-18 11:54:00,
2013-03-18 07:59:00,42.3,41.2,29.86,SSE,166,0.0,5.0,96,0.00,,,0.00,meteohub,2013-03-18 11:59:00,
2013-03-18 08:04:00,42.1,41.0,29.86,SSE,166,0.0,5.0,96,0.00,,,0.00,meteohub,2013-03-18 12:04:00,
2013-03-18 08:09:00,41.7,40.6,29.86,ESE,115,0.0,5.0,96,0.00,,,0.00,meteohub,2013-03-18 12:09:00,
2013-03-18 08:14:00,41.7,40.6,29.86,SE,130,0.0,5.0,96,0.00,,,0.00,meteohub,2013-03-18 12:14:00,
2013-03-18 08:19:00,41.5,40.5,29.86,South,179,0.0,4.0,96,0.00,,,0.00,meteohub,2013-03-18 12:19:00,
2013-03-18 08:24:00,41.5,40.5,29.87,South,171,0.0,4.0,96,0.00,,,0.00,meteohub,2013-03-18 12:24:00,
2013-03-18 08:29:00,41.5,40.5,29.86,South,171,0.0,7.0,96,0.00,,,0.00,meteohub,2013-03-18 12:29:00,
2013-03-18 08:34:00,41.4,40.3,29.87,South,173,5.0,7.0,96,0.00,,,0.00,meteohub,2013-03-18 12:34:00,
2013-03-18 08:39:00,41.2,40.1,29.86,SSE,153,0.0,4.0,96,0.00,,,0.00,meteohub,2013-03-18 12:39:00,
2013-03-18 08:44:00,41.0,39.9,29.86,South,177,0.0,8.0,96,0.00,,,0.00,meteohub,2013-03-18 12:44:00,
2013-03-18 08:49:00,40.8,39.7,29.86,South,173,0.0,8.0,96,0.00,,,0.00,meteohub,2013-03-18 12:49:00,
2013-03-18 08:54:00,40.6,39.6,29.86,South,175,2.0,11.0,96,0.00,,,0.00,meteohub,2013-03-18 12:54:00,
2013-03-18 08:59:00,40.5,39.4,29.86,SSE,147,0.0,11.0,96,0.00,,,0.00,meteohub,2013-03-18 12:59:00,
2013-03-18 09:04:00,40.3,39.2,29.86,South,175,0.0,11.0,96,0.00,,,0.00,meteohub,2013-03-18 13:04:00,
2013-03-18 09:09:00,40.3,39.2,29.86,SE,143,0.0,7.0,96,0.00,,,0.00,meteohub,2013-03-18 13:09:00,
2013-03-18 09:14:00,40.3,39.2,29.86,ESE,115,0.0,6.0,96,0.00,,,0.00,meteohub,2013-03-18 13:14:00,
2013-03-18 09:19:00,40.3,39.2,29.86,South,173,0.0,7.0,96,0.00,,,0.00,meteohub,2013-03-18 13:19:00,
2013-03-18 09:24:00,40.5,39.7,29.86,ESE,115,0.0,7.0,97,0.00,,,0.00,meteohub,2013-03-18 13:24:00,
2013-03-18 09:29:00,40.5,39.4,29.86,ESE,120,0.0,7.0,96,0.00,,,0.00,meteohub,2013-03-18 13:29:00,
2013-03-18 09:34:00,40.5,39.7,29.86,SE,138,0.0,7.0,97,0.00,,,0.00,meteohub,2013-03-18 13:34:00,
2013-03-18 09:39:00,40.5,39.7,29.86,SE,142,2.0,7.0,97,0.00,,,0.00,meteohub,2013-03-18 13:39:00,
2013-03-18 09:44:00,40.8,39.7,29.86,SSE,160,0.0,7.0,96,0.00,,,0.00,meteohub,2013-03-18 13:44:00,
2013-03-18 09:49:00,41.0,41.0,29.86,SE,137,5.0,10.0,100,0.00,,,0.00,meteohub,2013-03-18 13:49:00,
2013-03-18 09:54:00,41.2,40.5,29.86,East,96,0.0,10.0,97,0.00,,,0.00,meteohub,2013-03-18 13:54:00,
2013-03-18 09:59:00,41.5,40.8,29.86,SE,143,6.0,10.0,97,0.00,,,0.00,meteohub,2013-03-18 13:59:00,
2013-03-18 10:04:00,41.9,41.2,29.86,ESE,115,0.0,10.0,97,0.00,,,0.00,meteohub,2013-03-18 14:04:00,
2013-03-18 10:09:00,42.3,41.5,29.86,South,171,0.0,7.0,97,0.00,,,0.00,meteohub,2013-03-18 14:09:00,
2013-03-18 10:14:00,42.6,41.9,29.86,SE,135,0.0,10.0,97,0.01,,,0.01,meteohub,2013-03-18 14:14:00,
2013-03-18 10:19:00,42.6,41.9,29.86,East,85,0.0,10.0,97,0.01,,,0.01,meteohub,2013-03-18 14:19:00,
2013-03-18 10:24:00,42.8,42.1,29.86,South,172,6.0,10.0,97,0.01,,,0.01,meteohub,2013-03-18 14:24:00,
2013-03-18 10:30:00,42.8,42.1,29.86,SSE,160,11.0,11.0,97,0.01,,,0.01,meteohub,2013-03-18 14:30:00,
2013-03-18 10:35:00,43.0,42.3,29.86,ESE,120,0.0,11.0,97,0.01,,,0.01,meteohub,2013-03-18 14:35:00,
2013-03-18 10:40:00,43.3,42.6,29.86,East,79,0.0,11.0,97,0.01,,,0.01,meteohub,2013-03-18 14:40:00,
2013-03-18 10:45:00,43.5,42.8,29.85,ESE,115,7.0,11.0,97,0.01,,,0.01,meteohub,2013-03-18 14:45:00,
2013-03-18 10:50:00,43.9,43.2,29.85,East,97,4.0,10.0,97,0.01,,,0.01,meteohub,2013-03-18 14:50:00,
2013-03-18 10:55:00,44.1,43.3,29.85,ESE,104,0.0,10.0,97,0.01,,,0.01,meteohub,2013-03-18 14:55:00,
2013-03-18 11:00:00,44.8,44.1,29.84,East,93,0.0,17.0,97,0.01,,,0.01,meteohub,2013-03-18 15:00:00,
2013-03-18 11:05:00,44.8,44.1,29.85,SE,125,9.0,17.0,97,0.01,,,0.01,meteohub,2013-03-18 15:05:00,
2013-03-18 11:10:00,44.6,43.9,29.84,East,83,5.0,17.0,97,0.01,,,0.01,meteohub,2013-03-18 15:10:00,
2013-03-18 11:15:00,44.4,43.7,29.84,SE,125,5.0,17.0,97,0.00,,,0.01,meteohub,2013-03-18 15:15:00,
2013-03-18 11:20:00,44.4,43.7,29.84,WNW,289,0.0,17.0,97,0.00,,,0.01,meteohub,2013-03-18 15:20:00,
2013-03-18 11:25:00,44.6,43.9,29.84,SE,133,6.0,11.0,97,0.00,,,0.01,meteohub,2013-03-18 15:25:00,
2013-03-18 11:30:00,44.8,44.1,29.84,ESE,120,1.0,11.0,97,0.00,,,0.01,meteohub,2013-03-18 15:30:00,
2013-03-18 11:35:00,44.4,43.7,29.84,East,89,0.0,12.0,97,0.00,,,0.01,meteohub,2013-03-18 15:35:00,
2013-03-18 11:40:00,44.2,43.5,29.84,East,94,0.0,12.0,97,0.00,,,0.01,meteohub,2013-03-18 15:40:00,
2013-03-18 11:45:00,44.1,43.3,29.84,NNW,343,0.0,9.0,97,0.00,,,0.01,meteohub,2013-03-18 15:45:00,
2013-03-18 11:50:00,43.7,43.0,29.84,SE,135,4.0,11.0,97,0.00,,,0.01,meteohub,2013-03-18 15:50:00,
2013-03-18 11:55:00,43.9,43.2,29.85,ESE,120,0.0,12.0,97,0.00,,,0.01,meteohub,2013-03-18 15:55:00,
2013-03-18 12:00:00,43.9,43.2,29.85,SE,129,3.0,12.0,97,0.00,,,0.01,meteohub,2013-03-18 16:00:00,
2013-03-18 12:05:00,43.7,43.0,29.85,ESE,104,0.0,12.0,97,0.00,,,0.01,meteohub,2013-03-18 16:05:00,
2013-03-18 12:10:00,43.9,43.2,29.85,ESE,115,0.0,10.0,97,0.00,,,0.01,meteohub,2013-03-18 16:10:00,
2013-03-18 12:15:00,43.7,43.0,29.85,SE,125,0.0,10.0,97,0.00,,,0.01,meteohub,2013-03-18 16:15:00,
2013-03-18 12:20:00,43.5,42.8,29.84,SSE,148,0.0,10.0,97,0.00,,,0.01,meteohub,2013-03-18 16:20:00,
2013-03-18 12:25:00,43.7,43.0,29.84,ESE,111,0.0,10.0,97,0.00,,,0.01,meteohub,2013-03-18 16:25:00,
2013-03-18 12:30:00,43.5,42.8,29.84,ESE,103,0.0,12.0,97,0.00,,,0.01,meteohub,2013-03-18 16:30:00,
2013-03-18 12:35:00,43.3,42.6,29.85,SSE,150,8.0,12.0,97,0.00,,,0.01,meteohub,2013-03-18 16:35:00,
2013-03-18 12:40:00,43.2,42.4,29.84,East,79,1.0,12.0,97,0.00,,,0.01,meteohub,2013-03-18 16:40:00,
2013-03-18 12:45:00,43.0,42.3,29.84,SE,136,0.0,11.0,97,0.00,,,0.01,meteohub,2013-03-18 16:45:00,
2013-03-18 12:50:00,43.2,42.4,29.83,SE,125,0.0,11.0,97,0.00,,,0.01,meteohub,2013-03-18 16:50:00,
2013-03-18 12:55:00,43.5,42.8,29.83,ESE,120,2.0,9.0,97,0.00,,,0.01,meteohub,2013-03-18 16:55:00,
2013-03-18 13:00:00,43.3,42.6,29.83,ESE,115,6.0,11.0,97,0.00,,,0.01,meteohub,2013-03-18 17:00:00,
2013-03-18 13:05:00,43.5,42.8,29.82,SE,146,5.0,11.0,97,0.00,,,0.01,meteohub,2013-03-18 17:05:00,
2013-03-18 13:10:00,43.9,43.2,29.82,SE,146,0.0,11.0,97,0.00,,,0.01,meteohub,2013-03-18 17:10:00,
2013-03-18 13:15:00,44.2,43.5,29.81,SSE,167,2.0,10.0,97,0.00,,,0.01,meteohub,2013-03-18 17:15:00,
2013-03-18 13:20:00,44.4,43.7,29.82,South,183,0.0,10.0,97,0.00,,,0.01,meteohub,2013-03-18 17:20:00,
2013-03-18 13:25:00,44.2,43.5,29.82,SE,131,5.0,11.0,97,0.00,,,0.01,meteohub,2013-03-18 17:25:00,
2013-03-18 13:30:00,44.2,43.5,29.82,SE,142,3.0,11.0,97,0.00,,,0.01,meteohub,2013-03-18 17:30:00,
2013-03-18 13:35:00,44.1,43.3,29.81,SSE,166,3.0,11.0,97,0.00,,,0.01,meteohub,2013-03-18 17:35:00,
2013-03-18 13:40:00,44.1,43.3,29.81,East,87,0.0,11.0,97,0.00,,,0.01,meteohub,2013-03-18 17:40:00,
2013-03-18 13:45:00,44.8,44.1,29.81,SSE,165,2.0,9.0,97,0.00,,,0.01,meteohub,2013-03-18 17:45:00,
2013-03-18 13:50:00,44.8,44.1,29.81,ENE,64,0.0,8.0,97,0.00,,,0.01,meteohub,2013-03-18 17:50:00,
2013-03-18 13:55:00,44.4,43.7,29.81,SE,125,0.0,8.0,97,0.00,,,0.01,meteohub,2013-03-18 17:55:00,
2013-03-18 14:00:00,44.2,43.5,29.81,NE,44,0.0,7.0,97,0.00,,,0.01,meteohub,2013-03-18 18:00:00,
2013-03-18 14:05:00,44.1,43.3,29.81,South,176,5.0,9.0,97,0.00,,,0.01,meteohub,2013-03-18 18:05:00,
2013-03-18 14:10:00,44.1,43.3,29.81,ESE,115,0.0,11.0,97,0.00,,,0.01,meteohub,2013-03-18 18:10:00,
2013-03-18 14:15:00,43.9,43.2,29.81,SE,144,5.0,11.0,97,0.00,,,0.01,meteohub,2013-03-18 18:15:00,
2013-03-18 15:37:00,43.5,42.8,29.76,East,100,0.0,11.0,97,0.00,,,0.01,meteohub,2013-03-18 19:37:00,
2013-03-18 15:42:00,43.3,42.6,29.77,ESE,115,2.0,11.0,97,0.00,,,0.01,meteohub,2013-03-18 19:42:00,
2013-03-18 15:47:00,43.3,42.6,29.77,SE,143,0.0,9.0,97,0.00,,,0.01,meteohub,2013-03-18 19:47:00,
2013-03-18 15:52:00,43.3,42.6,29.77,SE,146,0.0,9.0,97,0.00,,,0.01,meteohub,2013-03-18 19:52:00,
2013-03-18 15:57:00,43.2,42.4,29.76,South,177,0.0,9.0,97,0.02,,,0.03,meteohub,2013-03-18 19:57:00,
2013-03-18 16:02:00,43.0,42.3,29.77,SE,134,0.0,7.0,97,0.02,,,0.03,meteohub,2013-03-18 20:02:00,
2013-03-18 16:08:00,43.2,42.4,29.77,East,89,0.0,7.0,97,0.02,,,0.03,meteohub,2013-03-18 20:08:00,
2013-03-18 16:13:00,43.2,42.4,29.77,SE,137,0.0,7.0,97,0.02,,,0.03,meteohub,2013-03-18 20:13:00,
2013-03-18 16:18:00,43.3,42.6,29.76,South,184,4.0,5.0,97,0.02,,,0.03,meteohub,2013-03-18 20:18:00,
2013-03-18 16:23:00,43.5,42.8,29.75,SSE,164,5.0,7.0,97,0.03,,,0.04,meteohub,2013-03-18 20:23:00,
2013-03-18 16:28:00,43.5,42.8,29.75,SE,125,0.0,11.0,97,0.04,,,0.05,meteohub,2013-03-18 20:28:00,
2013-03-18 16:33:00,43.9,43.2,29.75,ESE,120,0.0,11.0,97,0.04,,,0.05,meteohub,2013-03-18 20:33:00,
2013-03-18 16:38:00,44.2,43.5,29.76,East,86,0.0,11.0,97,0.07,,,0.06,meteohub,2013-03-18 20:38:00,
2013-03-18 16:43:00,43.9,43.2,29.76,SSE,160,0.0,11.0,97,0.07,,,0.08,meteohub,2013-03-18 20:43:00,
2013-03-18 16:48:00,43.7,43.0,29.76,SE,125,0.0,12.0,97,0.08,,,0.08,meteohub,2013-03-18 20:48:00,
2013-03-18 16:53:00,43.5,42.8,29.76,South,169,0.0,12.0,97,0.06,,,0.09,meteohub,2013-03-18 20:53:00,
2013-03-18 16:58:00,43.3,42.6,29.77,ESE,115,0.0,15.0,97,0.06,,,0.09,meteohub,2013-03-18 20:58:00,
2013-03-18 17:03:00,43.3,42.6,29.77,NE,47,0.0,11.0,97,0.06,,,0.09,meteohub,2013-03-18 21:03:00,
2013-03-18 17:08:00,43.3,42.6,29.78,SSE,162,0.0,8.0,97,0.06,,,0.09,meteohub,2013-03-18 21:08:00,
2013-03-18 17:13:00,43.7,43.0,29.78,SE,137,0.0,0.0,97,0.13,,,0.16,meteohub,2013-03-18 21:13:00,
2013-03-18 17:18:00,44.1,43.3,29.78,SE,125,0.0,0.0,97,0.13,,,0.16,meteohub,2013-03-18 21:18:00,
2013-03-18 17:23:00,44.2,43.5,29.78,NW,324,0.0,0.0,97,0.14,,,0.18,meteohub,2013-03-18 21:23:00,
2013-03-18 17:28:00,44.4,43.7,29.78,ESE,115,0.0,0.0,97,0.17,,,0.22,meteohub,2013-03-18 21:28:00,
2013-03-18 17:33:00,44.8,44.1,29.78,North,356,0.0,0.0,97,0.20,,,0.25,meteohub,2013-03-18 21:33:00,
2013-03-18 17:38:00,44.8,44.1,29.78,ESE,110,0.0,6.0,97,0.17,,,0.25,meteohub,2013-03-18 21:38:00,
2013-03-18 17:43:00,44.8,44.1,29.77,ESE,120,0.0,6.0,97,0.17,,,0.25,meteohub,2013-03-18 21:43:00,
2013-03-18 17:49:00,45.0,44.2,29.77,ESE,120,0.0,0.0,97,0.17,,,0.26,meteohub,2013-03-18 21:49:00,
2013-03-18 17:54:00,45.1,44.4,29.77,SE,131,0.0,0.0,97,0.17,,,0.26,meteohub,2013-03-18 21:54:00,
2013-03-18 17:59:00,45.5,44.8,29.77,ENE,70,0.0,0.0,97,0.17,,,0.26,meteohub,2013-03-18 21:59:00,
2013-03-18 18:04:00,45.7,45.0,29.76,ESE,115,0.0,3.0,97,0.17,,,0.26,meteohub,2013-03-18 22:04:00,
2013-03-18 18:08:00,45.7,45.0,29.76,NNE,25,0.0,3.0,97,0.17,,,0.26,meteohub,2013-03-18 22:08:00,
2013-03-18 18:14:00,45.7,45.0,29.76,ESE,106,0.0,3.0,97,0.10,,,0.26,meteohub,2013-03-18 22:14:00,
2013-03-18 18:19:00,45.7,45.0,29.77,ESE,102,0.0,2.0,97,0.09,,,0.26,meteohub,2013-03-18 22:19:00,
2013-03-18 18:24:00,46.0,45.3,29.80,NW,310,13.0,13.0,97,0.07,,,0.26,meteohub,2013-03-18 22:24:00,
2013-03-18 18:29:00,45.0,44.2,29.82,NW,304,6.0,11.0,97,0.03,,,0.26,meteohub,2013-03-18 22:29:00,
2013-03-18 18:34:00,43.0,42.3,29.81,NW,308,0.0,24.0,97,0.04,,,0.29,meteohub,2013-03-18 22:34:00,
2013-03-18 18:39:00,42.1,41.4,29.81,WNW,291,2.0,24.0,97,0.11,,,0.36,meteohub,2013-03-18 22:39:00,
2013-03-18 18:44:00,42.3,41.5,29.81,NW,313,0.0,23.0,97,0.12,,,0.38,meteohub,2013-03-18 22:44:00,
2013-03-18 18:49:00,42.6,41.9,29.81,NW,322,0.0,17.0,97,0.15,,,0.41,meteohub,2013-03-18 22:49:00,
2013-03-18 18:54:00,42.8,42.1,29.81,WNW,301,0.0,12.0,97,0.16,,,0.41,meteohub,2013-03-18 22:54:00,
2013-03-18 18:59:00,43.2,42.4,29.81,WNW,302,10.0,12.0,97,0.16,,,0.42,meteohub,2013-03-18 22:59:00,
2013-03-18 19:04:00,43.2,42.4,29.81,NW,317,0.0,11.0,97,0.17,,,0.43,meteohub,2013-03-18 23:04:00,
2013-03-18 19:09:00,43.3,42.6,29.82,WNW,298,1.0,11.0,97,0.17,,,0.43,meteohub,2013-03-18 23:09:00,
2013-03-18 19:14:00,43.3,42.6,29.82,NW,308,0.0,12.0,97,0.19,,,0.45,meteohub,2013-03-18 23:14:00,
2013-03-18 19:19:00,43.3,42.6,29.82,WNW,295,1.0,12.0,97,0.20,,,0.46,meteohub,2013-03-18 23:19:00,
2013-03-18 19:24:00,43.3,42.6,29.83,WNW,303,3.0,12.0,97,0.20,,,0.46,meteohub,2013-03-18 23:24:00,
2013-03-18 19:29:00,43.3,42.6,29.83,NW,310,0.0,9.0,97,0.20,,,0.47,meteohub,2013-03-18 23:29:00,
2013-03-18 19:34:00,43.3,42.6,29.83,NW,310,2.0,8.0,97,0.18,,,0.48,meteohub,2013-03-18 23:34:00,
2013-03-18 19:39:00,43.5,42.8,29.83,WNW,297,0.0,4.0,97,0.13,,,0.49,meteohub,2013-03-18 23:39:00,
2013-03-18 19:44:00,43.5,42.8,29.83,NW,323,0.0,10.0,97,0.10,,,0.49,meteohub,2013-03-18 23:44:00,
2013-03-18 19:49:00,43.7,43.0,29.83,WNW,300,4.0,12.0,97,0.09,,,0.50,meteohub,2013-03-18 23:49:00,
2013-03-18 19:54:00,43.9,42.8,29.83,WNW,292,19.0,19.0,96,0.08,,,0.50,meteohub,2013-03-18 23:54:00,
2013-03-18 19:59:00,43.9,42.8,29.83,NW,314,0.0,13.0,96,0.10,,,0.52,meteohub,2013-03-18 23:59:00,
2013-03-18 20:04:00,43.9,42.8,29.81,WNW,291,6.0,19.0,96,0.12,,,0.55,meteohub,2013-03-19 00:04:00,
2013-03-18 20:09:00,43.5,42.3,29.78,NW,322,0.0,19.0,95,0.12,,,0.01,meteohub,2013-03-19 00:09:00,
2013-03-18 20:14:00,43.5,42.4,29.79,WNW,296,0.0,18.0,96,0.12,,,0.02,meteohub,2013-03-19 00:14:00,
2013-03-18 20:19:00,43.3,42.1,29.77,WNW,296,0.0,18.0,95,0.11,,,0.02,meteohub,2013-03-19 00:19:00,
2013-03-18 20:24:00,43.3,42.3,29.76,WNW,296,0.0,7.0,96,0.11,,,0.02,meteohub,2013-03-19 00:24:00,
2013-03-18 20:29:00,43.2,42.1,29.75,WNW,296,0.0,7.0,96,0.10,,,0.02,meteohub,2013-03-19 00:29:00,
2013-03-18 20:34:00,43.0,41.9,29.75,WNW,296,0.0,0.0,96,0.09,,,0.02,meteohub,2013-03-19 00:34:00,
2013-03-18 20:39:00,43.0,41.9,29.75,WNW,295,0.0,0.0,96,0.08,,,0.02,meteohub,2013-03-19 00:39:00,
2013-03-18 20:44:00,42.8,41.7,29.76,WNW,295,0.0,0.0,96,0.07,,,0.02,meteohub,2013-03-19 00:44:00,
2013-03-18 20:50:00,42.8,41.7,29.76,WNW,295,0.0,0.0,96,0.07,,,0.02,meteohub,2013-03-19 00:50:00,
2013-03-18 20:55:00,42.6,41.5,29.76,WNW,295,0.0,0.0,96,0.07,,,0.02,meteohub,2013-03-19 00:55:00,
2013-03-18 21:00:00,42.6,41.5,29.77,WNW,295,0.0,0.0,96,0.05,,,0.02,meteohub,2013-03-19 01:00:00,
2013-03-18 21:05:00,42.4,41.4,29.77,WNW,295,0.0,0.0,96,0.02,,,0.02,meteohub,2013-03-19 01:05:00,
2013-03-18 21:10:00,42.4,41.4,29.77,WNW,296,0.0,0.0,96,0.01,,,0.02,meteohub,2013-03-19 01:10:00,
2013-03-18 21:15:00,42.4,41.4,29.78,WNW,296,0.0,0.0,96,0.00,,,0.02,meteohub,2013-03-19 01:15:00,
2013-03-18 21:20:00,42.4,41.4,29.78,WNW,295,0.0,0.0,96,0.00,,,0.02,meteohub,2013-03-19 01:20:00,
2013-03-18 21:25:00,42.4,41.4,29.78,WNW,296,0.0,0.0,96,0.00,,,0.02,meteohub,2013-03-19 01:25:00,
2013-03-18 21:30:00,42.4,41.4,29.77,South,179,0.0,0.0,96,0.00,,,0.02,meteohub,2013-03-19 01:30:00,
2013-03-18 21:35:00,42.4,41.4,29.77,South,179,0.0,0.0,96,0.00,,,0.02,meteohub,2013-03-19 01:35:00,
2013-03-18 21:40:00,42.4,41.4,29.76,South,179,0.0,0.0,96,0.00,,,0.02,meteohub,2013-03-19 01:40:00,
2013-03-18 21:45:00,42.4,41.4,29.76,South,179,0.0,0.0,96,0.00,,,0.02,meteohub,2013-03-19 01:45:00,
2013-03-18 21:50:00,42.3,41.2,29.76,South,179,0.0,0.0,96,0.00,,,0.02,meteohub,2013-03-19 01:50:00,
2013-03-18 21:55:00,42.3,41.2,29.76,South,179,0.0,0.0,96,0.00,,,0.02,meteohub,2013-03-19 01:55:00,
2013-03-18 22:00:00,42.3,41.2,29.76,South,179,0.0,0.0,96,0.00,,,0.02,meteohub,2013-03-19 02:00:00,
2013-03-18 22:05:00,42.3,41.2,29.76,South,179,0.0,0.0,96,0.00,,,0.02,meteohub,2013-03-19 02:05:00,
2013-03-18 22:10:00,42.3,41.2,29.76,South,179,0.0,0.0,96,0.00,,,0.02,meteohub,2013-03-19 02:10:00,
2013-03-18 22:15:00,42.1,41.0,29.77,South,179,0.0,0.0,96,0.00,,,0.02,meteohub,2013-03-19 02:15:00,
2013-03-18 22:20:00,42.1,41.0,29.77,South,179,0.0,0.0,96,0.00,,,0.02,meteohub,2013-03-19 02:20:00,
2013-03-18 22:25:00,42.3,41.2,29.78,South,179,0.0,0.0,96,0.00,,,0.02,meteohub,2013-03-19 02:25:00,
2013-03-18 22:30:00,42.3,41.2,29.78,South,179,0.0,0.0,96,0.00,,,0.02,meteohub,2013-03-19 02:30:00,
2013-03-18 22:35:00,42.3,41.2,29.78,South,179,0.0,0.0,96,0.00,,,0.02,meteohub,2013-03-19 02:35:00,
2013-03-18 22:40:00,42.3,41.2,29.79,South,179,0.0,0.0,96,0.00,,,0.02,meteohub,2013-03-19 02:40:00,
2013-03-18 22:45:00,42.3,41.2,29.78,South,179,0.0,0.0,96,0.00,,,0.02,meteohub,2013-03-19 02:45:00,
2013-03-18 22:50:00,42.3,41.2,29.78,South,179,0.0,0.0,96,0.00,,,0.02,meteohub,2013-03-19 02:50:00,
2013-03-18 22:55:00,42.3,41.2,29.78,South,179,0.0,0.0,96,0.00,,,0.02,meteohub,2013-03-19 02:55:00,
2013-03-18 23:00:00,42.4,41.4,29.78,South,179,0.0,0.0,96,0.00,,,0.02,meteohub,2013-03-19 03:00:00,
2013-03-18 23:05:00,42.4,41.4,29.78,South,179,0.0,0.0,96,0.00,,,0.02,meteohub,2013-03-19 03:05:00,
2013-03-18 23:10:00,42.3,41.2,29.79,South,179,0.0,0.0,96,0.00,,,0.02,meteohub,2013-03-19 03:10:00,
2013-03-18 23:15:00,42.3,41.2,29.79,South,179,0.0,0.0,96,0.00,,,0.02,meteohub,2013-03-19 03:15:00,
2013-03-18 23:20:00,42.1,41.0,29.79,South,179,0.0,0.0,96,0.00,,,0.02,meteohub,2013-03-19 03:20:00,
2013-03-18 23:25:00,41.9,40.8,29.80,South,179,0.0,0.0,96,0.00,,,0.02,meteohub,2013-03-19 03:25:00,
2013-03-18 23:30:00,41.9,40.8,29.79,South,179,0.0,0.0,96,0.00,,,0.02,meteohub,2013-03-19 03:30:00,
2013-03-18 23:35:00,41.7,40.6,29.78,South,179,0.0,0.0,96,0.00,,,0.02,meteohub,2013-03-19 03:35:00,
2013-03-18 23:40:00,41.7,40.6,29.79,South,179,0.0,0.0,96,0.00,,,0.02,meteohub,2013-03-19 03:40:00,
2013-03-18 23:45:00,41.5,40.3,29.79,South,181,0.0,0.0,95,0.00,,,0.02,meteohub,2013-03-19 03:45:00,
2013-03-18 23:50:00,41.5,40.5,29.78,South,183,0.0,0.0,96,0.00,,,0.02,meteohub,2013-03-19 03:50:00,
2013-03-18 23:55:00,41.9,40.8,29.78,South,185,0.0,0.0,96,0.00,,,0.02,meteohub,2013-03-19 03:55:00,